Regional Weather Roundup
Issued by NWS Kansas City/Pleasant Hill, MO

Home | Current Version | Previous Version | Text Only | Print | Product List | Glossary On
Versions: 1 2 3 4 5 6 7 8 9 10 11 12 13 14 15 16 17 18 19 20 21 22 23 24 25 26 27 28 29 30 31 32 33 34 35 36 37 38 39 40 41 42 43 44 45 46 47 48 49 50
000
ASUS43 KEAX 302110
RWREAX

WEATHER ROUNDUP FOR EASTERN KANSAS AND NORTHWEST MISSOURI
NATIONAL WEATHER SERVICE KANSAS CITY/PLEASANT HILL MO
400 PM CDT SAT APR 30 2016

KSZ040-057-103>105-MOZ028-029-037-043-302200-
...KANSAS CITY METROPOLITAN AREA...

CITY           SKY/WX    TMP DP  RH WIND       PRES   REMARKS
K.C. INTL      MOSUNNY   65  51  60 W14       29.73S
K.C. DOWNTOWN  SUNNY     68  50  52 W13G21    29.72S
LEES SUMMIT    SUNNY     67  50  54 SW21G29   29.72S
OLATHE - IXD   MOSUNNY   65  51  60 W14G23    29.75R
OLATHE - OJC   MOSUNNY   66  50  56 W14       29.73S
LAWRENCE       SUNNY     67  50  54 W15G25    29.73S

$$

MOZ001>008-011>017-020>025-030>033-038>040-044>046-053-054-302200-
...NORTHERN AND CENTRAL MISSOURI...

CITY           SKY/WX    TMP DP  RH WIND       PRES   REMARKS
ST. JOSEPH     PTSUNNY   62  51  67 W12       29.73S
MOSBY          MOCLDY    64  50  59 W9        29.72S
WARRENSBURG    MOSUNNY   68  52  56 SW16G23   29.72S
WHITEMAN AFB   MOSUNNY   70  55  59 W16       29.71R
CLINTON        MOSUNNY   72  55  56 W13G21    29.73R
SEDALIA        SUNNY     72  55  55 W12G24    29.72R
WARSAW         NOT AVBL
CHILLICOTHE      N/A     72  55  55 SW8G17    29.71R
KIRKSVILLE     PTSUNNY   66  60  81 N7        29.71S

$$

MOZ041-047>049-056>058-063>065-088>090-097-302200-
...EASTERN AND SOUTHERN MISSOURI...

CITY           SKY/WX    TMP DP  RH WIND       PRES   REMARKS
ST. LOUIS INTL MOSUNNY   75  62  64 S8        29.74F
SPIRIT OF STL  PTSUNNY   72  63  73 SW6       29.71F
COLUMBIA       PTSUNNY   76  59  55 W16G22    29.71R
JEFFERSON CITY MOSUNNY   76  58  53 W15       29.70R
ROLLA          MOSUNNY   74  60  61 S15       29.70F
OSAGE BEACH    CLOUDY    73  54  49 SW13      29.73R
SPRINGFIELD    PTSUNNY   73  59  61 SW18G24   29.75R
BRANSON        PTSUNNY   75  63  64 W13       29.75S
JOPLIN         SUNNY     70  57  63 W15       29.76S
WEST PLAINS    PTSUNNY   72  59  63 CALM      29.75F

$$

IAZ060-094-KSZ022-034>040-054-083-096-NEZ052-066-093-302200-
...KANSAS...SOUTHEAST NEBRASKA AND IOWA...

CITY           SKY/WX    TMP DP  RH WIND       PRES   REMARKS
TOPEKA         MOSUNNY   66  47  50 W12G21    29.73S
MANHATTAN      PTSUNNY   62  45  53 W10       29.75R
EMPORIA        PTSUNNY   62  47  57 VRB7G17   29.76S
CHANUTE        SUNNY     67  50  54 W16G22    29.76F
WICHITA        MOSUNNY   63  45  51 W13G25    29.78S
OMAHA          CLOUDY    50  48  93 E9        29.77R FOG
LINCOLN        LGT RAIN  52  50  93 NE7       29.75S FOG
FALLS CITY     PTSUNNY   63  52  67 W12       29.73R
LAMONI         CLOUDY    55  53  93 NE9       29.74R
DES MOINES     DRIZZLE   51  47  86 E16G22    29.80R FOG

$$




USA.gov is the U.S. government's official web portal to all federal, state and local government web resources and services.